Stations météo

Publicité
Chillingham Barns, Grande-Bretagne (99196): Température de l'air & dewpoint: 11.02.2019 15:00:00 - 17.02.2019 15:00:00 (GMT)Chillingham Barns, Grande-Bretagne (99196): Quantités de précipitations: 11.02.2019 15:00:00 - 17.02.2019 15:00:00 (GMT)
Date & Time tt [°C] td [°C] rr [mm]
17.02.2019 15:00:00 12,0 6,3 0,0
17.02.2019 14:00:00 12,9 6,4 0,0
17.02.2019 13:00:00 13,4 6,3 0,0
17.02.2019 12:00:00 11,2 6,0 0,0
17.02.2019 11:00:00 - - 0,0
17.02.2019 10:00:00 9,0 4,9 0,0
17.02.2019 09:00:00 7,8 5,0 0,0
17.02.2019 08:00:00 7,3 4,6 0,0
17.02.2019 07:00:00 8,2 5,0 0,0
17.02.2019 06:00:00 8,3 5,5 0,0
17.02.2019 05:00:00 9,1 5,8 0,0
17.02.2019 04:00:00 10,4 6,6 0,0
17.02.2019 03:00:00 11,1 7,4 0,0
17.02.2019 02:00:00 10,9 7,8 0,0
17.02.2019 01:00:00 10,5 7,6 0,0
17.02.2019 00:00:00 9,7 7,0 0,0
16.02.2019 23:00:00 9,6 6,5 0,0
16.02.2019 22:00:00 9,3 5,8 0,0
16.02.2019 21:00:00 8,6 5,1 0,0
16.02.2019 20:00:00 6,6 3,4 0,0
16.02.2019 19:00:00 7,8 3,8 0,0
16.02.2019 18:00:00 8,7 4,6 0,0
16.02.2019 17:00:00 9,1 4,4 0,0
16.02.2019 16:00:00 10,0 4,7 0,0
16.02.2019 15:00:00 10,3 4,6 0,0
16.02.2019 14:00:00 10,1 4,3 0,0
16.02.2019 13:00:00 10,3 4,8 0,0
16.02.2019 12:00:00 9,5 4,6 0,0
16.02.2019 11:00:00 9,9 4,5 0,0
16.02.2019 10:00:00 9,7 5,2 0,0
16.02.2019 09:00:00 9,5 5,4 0,0
16.02.2019 08:00:00 9,3 5,1 0,0
16.02.2019 07:00:00 9,4 5,1 0,0
16.02.2019 06:00:00 9,6 5,2 0,0
16.02.2019 05:00:00 9,9 5,1 0,0
16.02.2019 04:00:00 10,1 5,7 0,0
16.02.2019 03:00:00 10,4 5,7 0,0
16.02.2019 02:00:00 10,9 5,5 0,0
16.02.2019 01:00:00 11,0 7,0 0,0
16.02.2019 00:00:00 11,5 6,0 0,0
15.02.2019 23:00:00 9,5 4,5 0,0
15.02.2019 22:00:00 9,8 3,9 0,0
15.02.2019 21:00:00 9,6 3,1 0,0
15.02.2019 20:00:00 9,8 2,9 0,0
15.02.2019 19:00:00 9,4 2,4 0,0
15.02.2019 18:00:00 11,0 2,6 0,0
15.02.2019 17:00:00 12,2 2,6 0,0
15.02.2019 16:00:00 12,8 2,7 0,0
15.02.2019 15:00:00 12,7 2,4 0,0
15.02.2019 14:00:00 12,4 1,8 0,0
15.02.2019 13:00:00 12,2 1,4 0,0
15.02.2019 12:00:00 11,7 1,2 0,0
15.02.2019 11:00:00 11,8 -1,7 0,0
15.02.2019 10:00:00 7,3 2,0 0,0
15.02.2019 09:00:00 0,8 -0,5 0,0
15.02.2019 08:00:00 -1,2 -3,1 0,0
15.02.2019 07:00:00 -0,1 -2,5 0,0
15.02.2019 06:00:00 0,9 -1,8 0,0
15.02.2019 05:00:00 2,8 -1,9 0,0
15.02.2019 04:00:00 5,8 -0,4 0,0
15.02.2019 03:00:00 6,4 -1,2 0,0
15.02.2019 02:00:00 5,4 -0,9 0,0
15.02.2019 01:00:00 4,9 -0,9 0,0
15.02.2019 00:00:00 5,2 -0,8 0,0
14.02.2019 23:00:00 6,4 -0,5 0,0
14.02.2019 22:00:00 7,1 0,1 0,0
14.02.2019 21:00:00 7,9 -0,5 0,0
14.02.2019 20:00:00 8,0 1,5 0,0
14.02.2019 19:00:00 8,0 2,7 0,0
14.02.2019 18:00:00 8,3 2,9 0,0
14.02.2019 17:00:00 9,4 2,5 0,0
14.02.2019 16:00:00 9,8 3,2 0,0
14.02.2019 15:00:00 9,3 4,4 0,0
14.02.2019 14:00:00 10,4 4,4 0,0
14.02.2019 13:00:00 9,9 4,4 0,0
14.02.2019 12:00:00 10,2 4,9 0,0
14.02.2019 11:00:00 10,5 5,4 0,0
14.02.2019 10:00:00 10,1 5,4 0,0
14.02.2019 09:00:00 9,2 5,1 0,0
14.02.2019 08:00:00 8,7 4,9 0,0
14.02.2019 07:00:00 9,0 5,0 0,0
14.02.2019 06:00:00 9,0 5,0 0,0
14.02.2019 05:00:00 9,2 5,3 0,0
14.02.2019 04:00:00 9,1 5,4 0,0
14.02.2019 03:00:00 9,2 5,1 0,0
14.02.2019 02:00:00 9,7 4,7 0,0
14.02.2019 01:00:00 9,4 4,7 0,0
14.02.2019 00:00:00 9,4 4,5 0,0
13.02.2019 23:00:00 9,4 4,2 0,0
13.02.2019 22:00:00 9,1 4,2 0,0
13.02.2019 21:00:00 9,0 4,4 0,0
13.02.2019 20:00:00 9,1 4,8 0,0
13.02.2019 19:00:00 8,8 5,0 0,0
13.02.2019 18:00:00 9,0 5,4 0,0
13.02.2019 17:00:00 9,3 5,7 0,0
13.02.2019 16:00:00 9,4 5,9 0,0
13.02.2019 15:00:00 9,6 5,9 0,0
13.02.2019 14:00:00 9,8 5,8 0,0
13.02.2019 13:00:00 10,2 6,2 0,0
13.02.2019 12:00:00 9,6 6,3 0,0
13.02.2019 11:00:00 9,5 6,3 0,0
13.02.2019 10:00:00 9,2 6,2 0,0
13.02.2019 09:00:00 9,1 6,5 0,0
13.02.2019 08:00:00 8,4 6,7 0,0
13.02.2019 07:00:00 9,2 6,9 0,0
13.02.2019 06:00:00 9,9 7,2 0,0
13.02.2019 05:00:00 9,9 6,9 0,0
13.02.2019 04:00:00 10,6 6,7 0,0
13.02.2019 03:00:00 10,1 7,2 0,0
13.02.2019 02:00:00 10,4 7,6 0,0
13.02.2019 01:00:00 10,1 5,5 0,0
13.02.2019 00:00:00 9,7 4,5 0,0
12.02.2019 23:00:00 9,6 4,8 0,0
12.02.2019 22:00:00 9,0 5,7 0,0
12.02.2019 21:00:00 9,9 6,0 0,0
12.02.2019 20:00:00 9,4 5,7 0,0
12.02.2019 19:00:00 10,2 6,2 0,0
12.02.2019 18:00:00 10,0 6,4 0,0
12.02.2019 17:00:00 10,9 7,3 0,0
12.02.2019 16:00:00 10,7 7,4 0,0
12.02.2019 15:00:00 11,8 7,5 0,0
12.02.2019 14:00:00 11,3 7,4 0,0
12.02.2019 13:00:00 10,2 6,8 0,0
12.02.2019 12:00:00 9,6 6,5 0,0
12.02.2019 11:00:00 9,4 6,8 0,0
12.02.2019 10:00:00 9,2 6,2 0,0
12.02.2019 09:00:00 8,7 5,3 0,0
12.02.2019 08:00:00 8,2 4,8 0,0
12.02.2019 07:00:00 7,0 4,7 0,0
12.02.2019 06:00:00 5,6 3,5 0,0
12.02.2019 05:00:00 6,1 3,5 0,0
12.02.2019 04:00:00 5,7 2,9 0,0
12.02.2019 03:00:00 5,9 3,1 0,0
12.02.2019 02:00:00 6,8 2,9 0,0
12.02.2019 01:00:00 6,2 3,1 0,0
12.02.2019 00:00:00 4,2 1,5 0,0
11.02.2019 23:00:00 3,5 0,2 0,0
11.02.2019 22:00:00 2,4 0,6 0,0
11.02.2019 21:00:00 1,9 -0,3 0,0
11.02.2019 20:00:00 2,6 0,3 0,0
11.02.2019 19:00:00 2,7 0,5 0,0
11.02.2019 18:00:00 3,3 0,6 0,0
11.02.2019 17:00:00 4,5 0,8 0,0
11.02.2019 16:00:00 5,9 1,3 0,0
11.02.2019 15:00:00 7,1 1,0 0,0

tt = Température de l'air
td = dewpoint
rr = Quantités de précipitations

stations d'obs. à proximité